Regional Weather Roundup
Issued by NWS

Home | Current Version | Previous Version | Text Only | Print | Product List | Glossary On
Versions: 1 2 3 4 5 6 7 8 9 10 11 12 13 14 15 16 17 18 19 20 21 22 23 24 25 26 27 28 29 30 31 32 33 34 35 36 37 38 39 40 41 42 43 44 45 46 47 48 49 50
000
ASUS45 KREV 011210
RWRNV
NEVADA REGIONAL WEATHER ROUNDUP
NATIONAL WEATHER SERVICE RENO NV
500 AM PDT SAT AUG 01 2015

NOTE: "FAIR" INDICATES FEW OR NO CLOUDS BELOW 12,000 FEET WITH NO
SIGNIFICANT WEATHER AND/OR OBSTRUCTIONS TO VISIBILITY.

NVZ001-003-004-011300-
WESTERN NEVADA

CITY           SKY/WX    TMP DP  RH WIND       PRES   REMARKS
RENO           CLOUDY    68  40  35 S5        30.12S
6HR MIN TEMP:  67; 6HR MAX TEMP:  79;

CARSON CITY    FAIR      64  37  36 CALM      30.15S
MINDEN         FAIR      57  46  67 CALM      30.15S
SLIDE MTN        N/A     61  36  39 SE2         N/A
PYRAMID LAKE     N/A     77 N/A N/A W5          N/A
FALLON         MOCLDY    69  38  32 SE8       30.05S
6HR MIN TEMP:  68; 6HR MAX TEMP:  82;

LOVELOCK       CLOUDY    69  37  30 W6        30.05R
6HR MIN TEMP:  69; 6HR MAX TEMP:  86;

HAWTHORNE      CLEAR     73  37  27 CALM      30.09S
$$

NVZ002-CAZ072-073-011300-
NORTHERN AND CENTRAL SIERRA

CITY           SKY/WX    TMP DP  RH WIND       PRES   REMARKS
S. LAKE TAHOE  PTCLDY    53  42  66 S3        30.27S
6HR MIN TEMP:  53; 6HR MAX TEMP:  59;

TRUCKEE        MOCLDY    52  41  66 CALM      30.25F
SQUAW VLY 8000   N/A     61  32  33 SW6         N/A
SUSANVILLE     CLEAR     66  37  34 W5        30.09F
BLUE CANYON    PTCLDY    73  38  27 CALM      30.20R
MAMMOTH LAKES  FAIR      52  41  66 N3        30.33F
BRIDGEPORT     FAIR      46  37  71 CALM      30.30S
$$

NVZ030-031-036-011300-
NORTHERN NEVADA

CITY           SKY/WX    TMP DP  RH WIND       PRES   REMARKS
ELKO           MOCLDY    55  26  32 CALM      30.18F
6HR MIN TEMP:  54; 6HR MAX TEMP:  75;

WINNEMUCCA     MOCLDY    56  29  35 SE7       30.10S
6HR MIN TEMP:  54; 6HR MAX TEMP:  78;

WENDOVER       MOCLDY    70  30  23 NW7       30.12R
$$

NVZ035-037-011300-
CENTRAL NEVADA

CITY           SKY/WX    TMP DP  RH WIND       PRES   REMARKS
ELY            MOCLDY    54  26  34 S9        30.27S
6HR MIN TEMP:  53; 6HR MAX TEMP:  68;

EUREKA           N/A     57  23  26 SW9       30.23S
6HR MIN TEMP:  56; 6HR MAX TEMP:  72;

$$

NVZ013-014-011300-
SOUTH CENTRAL NEVADA

CITY           SKY/WX    TMP DP  RH WIND       PRES   REMARKS
TONOPAH        MOCLDY    66  33  29 N9        30.19F
6HR MIN TEMP:  66; 6HR MAX TEMP:  84;

$$

NVZ017-020-022-011300-
SOUTHERN NEVADA

CITY           SKY/WX    TMP DP  RH WIND       PRES   REMARKS
LAS VEGAS      CLOUDY    89  54  30 S3        29.89S
6HR MIN TEMP:  89; 6HR MAX TEMP:  94;

N. LAS VEGAS   CLOUDY    88  54  31 E6        29.92S
6HR MIN TEMP:  87; 6HR MAX TEMP:  94;

NELLIS AFB     CLOUDY    89  55  31 E6        29.90S
6HR MIN TEMP:  88; 6HR MAX TEMP:  96;

HENDERSON      CLOUDY    83  59  44 S8        29.97R
6HR MIN TEMP:  82; 6HR MAX TEMP:  88;

MERCURY        MOCLDY    77  51  40 CALM      30.00F
6HR MIN TEMP:  77; 6HR MAX TEMP:  84;

$$


USA.gov is the U.S. government's official web portal to all federal, state and local government web resources and services.